TimeHDT,TemperatureF,Dew PointF,Humidity,Sea Level PressureIn,VisibilityMPH,Wind Direction,Wind SpeedMPH,Gust SpeedMPH,PrecipitationIn,Events,Conditions,WindDirDegrees,DateUTC
12:01 AM,32.0,30.0,92,30.77,10.0,North,-9999.0,-,N/A,,Clear,0,2012-10-21 09:01:00
12:30 AM,33.8,30.2,87,30.47,10.0,North,-9999.0,-,N/A,,Mostly Cloudy,0,2012-10-21 09:30:00
1:01 AM,34.0,30.9,89,30.76,10.0,North,-9999.0,-,N/A,,Overcast,0,2012-10-21 10:01:00
2:01 AM,35.1,30.9,85,30.74,10.0,North,-9999.0,-,N/A,,Overcast,0,2012-10-21 11:01:00
3:01 AM,36.0,32.0,86,30.72,10.0,North,-9999.0,-,N/A,,Overcast,0,2012-10-21 12:01:00
4:01 AM,39.0,34.0,82,30.71,10.0,North,-9999.0,-,N/A,,Overcast,0,2012-10-21 13:01:00
5:01 AM,37.4,32.0,81,30.39,10.0,North,-9999.0,-,N/A,,Scattered Clouds,0,2012-10-21 14:01:00
5:20 AM,37.4,32.0,81,30.38,10.0,North,-9999.0,-,N/A,,Mostly Cloudy,0,2012-10-21 14:20:00
6:01 AM,39.0,36.0,89,30.68,10.0,North,-9999.0,-,N/A,,Overcast,0,2012-10-21 15:01:00
6:42 AM,37.4,33.8,87,30.38,10.0,North,-9999.0,-,N/A,,Scattered Clouds,0,2012-10-21 15:42:00
7:01 AM,36.0,32.0,86,30.67,10.0,North,-9999.0,-,N/A,,Clear,0,2012-10-21 16:01:00
8:01 AM,35.1,33.1,92,30.66,10.0,North,-9999.0,-,N/A,,Mostly Cloudy,0,2012-10-21 17:01:00
8:09 AM,35.6,33.8,93,30.37,10.0,North,-9999.0,-,N/A,,Overcast,0,2012-10-21 17:09:00
9:01 AM,39.0,35.1,86,30.65,10.0,North,-9999.0,-,N/A,,Overcast,0,2012-10-21 18:01:00
9:42 AM,37.4,35.6,93,30.36,10.0,North,-9999.0,-,N/A,,Overcast,0,2012-10-21 18:42:00
9:57 AM,39.2,35.6,87,30.35,10.0,North,-9999.0,-,N/A,,Overcast,0,2012-10-21 18:57:00
10:01 AM,39.0,36.0,89,30.64,10.0,North,-9999.0,-,N/A,,Overcast,0,2012-10-21 19:01:00
11:01 AM,44.1,37.9,79,30.62,10.0,North,-9999.0,-,N/A,,Overcast,0,2012-10-21 20:01:00
11:29 AM,44.6,37.4,76,30.32,10.0,North,-9999.0,-,N/A,,Overcast,0,2012-10-21 20:29:00
12:01 PM,44.1,37.9,79,30.61,10.0,North,-9999.0,-,N/A,,Overcast,0,2012-10-21 21:01:00
1:01 PM,45.0,37.9,76,30.60,10.0,North,-9999.0,-,N/A,,Overcast,0,2012-10-21 22:01:00
2:01 PM,46.0,37.9,73,30.60,10.0,North,-9999.0,-,N/A,,Overcast,0,2012-10-21 23:01:00
3:01 PM,46.0,37.9,73,30.59,10.0,North,-9999.0,-,N/A,,Overcast,0,2012-10-22 00:01:00
4:01 PM,45.0,39.0,80,30.61,10.0,North,-9999.0,-,N/A,,Overcast,0,2012-10-22 01:01:00
5:01 PM,45.0,37.9,76,30.61,10.0,North,-9999.0,-,N/A,,Overcast,0,2012-10-22 02:01:00
6:01 PM,44.1,39.0,82,30.61,10.0,North,-9999.0,-,N/A,,Overcast,0,2012-10-22 03:01:00
7:01 PM,42.1,37.0,82,30.61,10.0,North,-9999.0,-,N/A,,Overcast,0,2012-10-22 04:01:00
8:01 PM,41.0,37.0,86,30.63,10.0,North,-9999.0,-,N/A,,Overcast,0,2012-10-22 05:01:00
9:01 PM,41.0,39.0,93,30.63,10.0,North,-9999.0,-,N/A,,Overcast,0,2012-10-22 06:01:00
10:01 PM,39.0,37.9,96,30.62,10.0,North,-9999.0,-,N/A,,Overcast,0,2012-10-22 07:01:00